Regional Weather Roundup
Issued by NWS Charleston, SC

Current Version | Previous Version | Graphics & Text | Print | Product List | Glossary On
Versions: 1 2 3 4 5 6 7 8 9 10 11 12 13 14 15 16 17 18 19 20 21 22 23 24 25 26 27 28 29 30 31 32 33 34 35 36 37 38 39 40 41 42 43 44 45 46 47 48 49 50
000 ASUS42 KCHS 201110 RWRCHS REGIONAL WEATHER ROUNDUP NATIONAL WEATHER SERVICE CHARLESTON SC 700 AM EDT WED AUG 20 2014 NOTE: "FAIR" INDICATES FEW OR NO CLOUDS BELOW 12,000 FEET WITH NO SIGNIFICANT WEATHER AND/OR OBSTRUCTIONS TO VISIBILITY. NOT ALL STATIONS ARE QUALITY CONTROLLED BY THE NATIONAL WEATHER SERVICE. USE DATA WITH CAUTION...ESPECIALLY DEWPOINT OBSERVATIONS. SCZ027-030-031-034>040-042>050-201200- ...SOUTH CAROLINA... CITY SKY/WX TMP DP RH WIND PRES REMARKS N CHARLESTON PTCLDY 75 71 87 W7 29.95R WATERFRONT PRK N/A 77 N/A N/A W7 N/A FORT JOHNSON NOT AVBL MOUNT PLEASANT FAIR 75 73 94 W3 29.94R FOG JOHNS ISLAND SUNNY 75 73 94 CALM 29.95R PINOPOLIS N/A 77 73 88 W8 29.86R MONCKS CORNER N/A 75 73 94 CALM 29.94R SUMMERVILLE FAIR 72 72 100 CALM 29.95R BEAUFORT MCAS PTCLDY 75 71 87 NW6 29.96R BEAUFORT ARPT FAIR 75 73 94 W5 29.96R HILTON HEAD IS CLEAR 75 72 88 SW9 29.98R GEORGETOWN NOT AVBL WALTERBORO SUNNY 73 N/A N/A W6 29.96R ORANGEBURG CLEAR 72 70 93 W3 29.95R BARNWELL FAIR 72 72 100 W3 29.96R FOG AIKEN FAIR 70 70 100 SW3 30.00R MANNING FAIR 73 N/A N/A SW3 29.95R KINGSTREE NOT AVBL COLUMBIA PTCLDY 72 69 90 CALM 29.94R SUMTER CLEAR 73 71 93 W5 29.93R FLORENCE MOCLDY 73 71 93 CALM 29.93R FOG MYRTLE BEACH CLEAR 75 72 88 NW5 29.92R N MYRTLE BEACH CLEAR 75 73 93 NW3 29.92R FOG $$ GAZ063-065-086>088-099>101-113>116-118-119-134-136>141-150-201200- ...GEORGIA... CITY SKY/WX TMP DP RH WIND PRES REMARKS SAVANNAH ARPT PTCLDY 73 69 87 W6 29.98R HUNTER AAF CLEAR 73 71 92 W7 29.96R FORT STEWART CLEAR 75 70 84 W9 29.98R STATESBORO NOT AVBL SYLVANIA SUNNY 73 73 100 W3 29.98R CLAXTON FAIR N/A N/A N/A W3 29.99R THOMSON CLEAR 74 74 100 CALM 30.01R AUGUSTA-BUSH CLEAR 72 71 97 CALM 29.95R AUGUSTA-DANIEL CLEAR 75 72 90 W5 29.96R SWAINSBORO FAIR 72 72 100 CALM 30.00R VIDALIA N/A 72 72 100 W5 30.01R ALMA CLEAR 71 70 96 W3 30.01R WAYCROSS MOCLDY 76 74 94 W5 30.02R JESUP N/A 72 72 100 CALM 30.00R BRUNSWICK NOT AVBL SAINT SIMONS CLEAR 76 74 93 W7 30.00R $$ SCZ027-028-034-036>038-045-046-048>050-GAZ119-141-201200- ...LAKE AND SUPPLEMENTAL COASTAL OBSERVATIONS... STATION/POSITION TIME TEMP WIND PRES WAVE SWELL AIR SEA DIR/SP/G HT/PER HT/PER/DIR (UTC) (F) (DEG/KT/KT) (MB) (FT/S) (FT/S/D) UPR LAKE MARION NOT AVBL WINYAH BAY 1000 76 280/ 4 1012.0S LAKE MURRAY 1000 74 280/ 3/ 6 1013.2R ACE BASIN NERRS 1000 74 260/ 2 1013.0S FORT PULASKI 1100 75 250/ 5/ 9 1015.0R SAPELO ISLAND 1000 76 270/ 4 1015.0S $$ ANZ835-935-AMZ111-154-330-350-352-354-374-450-454-472-201200- ...C-MAN AND BUOY OBSERVATIONS... STATION/POSITION TIME TEMP WIND PRES WAVE SWELL AIR SEA DIR/SP/G HT/PER HT/PER/DIR (UTC) (F) (DEG/KT/KT) (MB) (FT/S) (FT/S/D) FOLLY BEACH CMAN 1000 75 260/ 5/ 8 1013.7R BUOY 41004 1100 81 83 270/ 12/ 14 1013.1R 4/ 5 2/ 8 BUOY 41008 1100 81 85 280/ 12/ 16 1014.9R 2/ 3 2/110/ 8 5E ST. MARYS GA 1100 81 N/A 2/ 2 FRYING PAN BUOY NOT AVBL BUOY 41025 1100 79 320/ 8/ 10 1011.6R 3/ 7 3/200/ 7 CAPE LOOKOUT NC 1000 78 330/ 6/ 8 1011.7R BUOY 41002 1034 82 81 240/ 19/ 23 1014.4R 6/ 5 2/ 60/12 BUOY 41010 1100 79 86 270/ 17/ 23 1017.1R 3/ 4 2/140/ 8 BUOY 41012 NOT AVBL ST AUGUSTINE FL 1100 76 240/ 4/ 7 1016.9R CAPERS NEARSHORE 1000 78 290/ 12/ 14 N/A FRIPP NEARSHORE NOT AVBL $$

USA.gov is the U.S. government's official web portal to all federal, state and local government web resources and services.